1301097628692,0.784422
1301097688692,0.783842
1301097748692,0.782735
1301097808692,0.779078
1301097868692,0.775769
1301097928692,0.780453
1301097988692,0.776478
1301098048692,0.784261
1301098108692,0.775966
1301098168692,0.781968
1301098228692,0.775663
1301098288692,0.780995
1301098348692,0.777392
1301098408692,0.779196
1301098468692,0.772696
1301098528692,0.784362
1301098588692,0.779597
1301098648692,0.784910
1301098708692,0.773304
1301098768692,0.787318
1301098828692,0.774911
1301098888692,0.777040
1301098948692,0.777024
1301099008692,0.775059
1301099068692,0.775880
1301099128692,0.770933
1301099188692,0.776897
1301099248692,0.776381
1301099308692,0.777905
1301099368692,0.781348
1301099428692,0.778713
1301099488692,0.787730
1301099548692,0.774108
1301099608692,0.771414
1301099668692,0.776452
1301099728692,0.780404
1301099788692,0.775510
1301099848692,0.777921
1301099908692,0.778408
1301099968692,0.776983
1301100028692,0.779883
1301100088692,0.786932
1301100148692,0.773521
1301100208692,0.772079
1301100268692,0.783370
1301100328692,0.778235
1301100388692,0.773970
1301100448692,0.779812
1301100508692,0.777546
1301100568692,0.776996
1301100628692,0.775296
1301100688692,0.784730
1301100748692,0.778050
1301100808692,0.774675
1301100868692,0.781321
1301100928692,0.775835
1301100988692,0.776919
1301101048692,0.786301
1301101108692,0.817021
1301101168692,0.815728
1301101228705,0.808548
1301101288704,0.802890
1301101348705,0.792922
1301101408705,0.791417
1301101468705,0.794976
1301101528705,0.791382
1301101588705,0.787838
1301101648705,0.790332
1301101708705,0.783643
1301101768705,0.781938
1301101828705,0.786104
1301101888705,0.781145
1301101948705,0.791306
1301102008705,0.789143
1301102068705,0.789057
1301102128705,0.783028
1301102188705,0.779138
1301102248705,0.788061
1301102308705,0.779336
1301102368705,0.782176
1301102428705,0.783046
1301102488705,0.772884
1301102548705,0.787994
1301102608704,0.781556
1301102668704,0.776264
1301102728705,0.777793
1301102788705,0.780372
1301102848705,0.770003
1301102908705,0.782414
1301102968705,0.782598
1301103028705,0.780304
1301103088705,0.788148
1301103148705,0.778856
1301103208705,0.775140
1301103268705,0.784372
1301103328705,0.778109
1301103388705,0.779411
1301103448705,0.778597
1301103508705,0.780814
1301103568705,0.775585
1301103628705,0.783504
1301103688705,0.777346
1301103748705,0.774232
1301103808705,0.775348
1301103868705,0.775332
1301103928705,0.783668
1301103988704,0.782123
1301104048705,0.777381
1301104108705,0.785064
1301104168705,0.782502
1301104228705,0.779380
1301104288705,0.787728
1301104348705,0.795254
1301104408705,0.782964
1301104468705,0.782443
1301104528705,0.783831
1301104588705,0.781990
1301104648705,0.780363
1301104708705,0.778615
1301104768705,0.788332
1301104828717,0.785343
1301104888717,0.783223
1301104948717,0.779882
1301105008717,0.784905
1301105068717,0.785239
1301105128717,0.799383
1301105188717,0.789523
1301105248717,0.790240
1301105308717,0.791537
1301105368717,0.792377
1301105428717,0.794640
1301105488717,0.787117
1301105548717,0.788261
1301105608717,0.786754
1301105668717,0.796372
1301105728717,0.795569
1301105788717,0.788664
1301105848717,0.800396
1301105908717,0.789711
1301105968717,0.791818
1301106028717,0.790441
1301106088717,0.795514
1301106148717,0.783569
1301106208717,0.789770
1301106268717,0.781964
1301106328717,0.788991
1301106388717,0.792679
1301106448717,0.781810
1301106508717,0.780702
1301106568717,0.788579
1301106628717,0.784978
1301106688717,0.784567
1301106748717,0.787794
1301106808717,0.786772
1301106868717,0.786322
1301106928717,0.786904
1301106988717,0.789696
1301107048717,0.779549
1301107108717,0.782259
1301107168717,0.788725
1301107228717,0.787476
1301107288717,0.781180
1301107348717,0.786716
1301107408717,0.786053
1301107468717,0.786151
1301107528717,0.783108
1301107588717,0.788175
1301107648717,0.778619
1301107708717,0.780718
1301107768717,0.787706
1301107828717,0.786676
1301107888717,0.794656
1301107948717,0.789265
1301108008717,0.784779
1301108068717,0.790965
1301108128717,0.781408
1301108188717,0.789730
1301108248717,0.790517
1301108308717,0.786974
1301108368717,0.785786
1301108428729,0.786368
1301108488729,0.783638
1301108548729,0.786548
1301108608729,0.789077
1301108668729,0.791915
1301108728729,0.785757
1301108788729,0.785950
1301108848729,0.794448
1301108908729,0.780238
1301108968729,0.781724
1301109028729,0.779669
1301109088729,0.786051
1301109148729,0.784917
1301109208729,0.784448
1301109268729,0.782991
1301109328729,0.777929
1301109388729,0.770542
1301109448729,0.786764
1301109508729,0.789106
1301109568729,0.781234
1301109628729,0.782131
1301109688729,0.772748
1301109748729,0.778765
1301109808729,0.781216
1301109868729,0.784687
1301109928729,0.785014
1301109988729,0.789913
1301110048729,0.788666
1301110108729,0.789583
1301110168729,0.780274
1301110228729,0.780281
1301110288729,0.787042
1301110348729,0.778611
1301110408729,0.780519
1301110468729,0.781087
1301110528729,0.787385
1301110588729,0.785943
1301110648729,0.782749
1301110708729,0.779589
1301110768729,0.779428
1301110828729,0.785752
1301110888729,0.787122
1301110948729,0.786119
1301111008729,0.788955
1301111068729,0.782568
1301111128729,0.788095
1301111188729,0.783382
1301111248729,0.787872
1301111308729,0.784956
1301111368729,0.780171
1301111428729,0.787902
1301111488729,0.782599
1301111548729,0.787438
1301111608729,0.787327
1301111668729,0.789131
1301111728729,0.789437
1301111788729,0.787298
1301111848729,0.789816
1301111908729,0.787043
1301111968729,0.784061
1301112028740,0.785936
1301112088740,0.788380
1301112148740,0.786259
1301112208740,0.787133
1301112268740,0.793141
1301112328740,0.796040
1301112388740,0.788997
1301112448740,0.789604
1301112508740,0.794512
1301112568740,0.796736
1301112628740,0.796019
1301112688740,0.797696
1301112748741,0.790756
1301112808741,0.794910
1301112868740,0.789887
1301112928740,0.793396
1301112988740,0.792376
1301113048740,0.794631
1301113108740,0.778441
1301113168740,0.782088
1301113228740,0.793320
1301113288740,0.789693
1301113348740,0.790692
1301113408740,0.787108
1301113468740,0.783439
1301113528740,0.795615
1301113588740,0.787649
1301113648740,0.790829
1301113708740,0.795324
1301113768740,0.792668
1301113828740,0.792724
1301113888740,0.795048
1301113948740,0.795848
1301114008740,0.794241
1301114068740,0.796380
1301114128741,0.798941
1301114188741,0.802281
1301114248740,0.804085
1301114308740,0.806967
1301114368740,0.803447
1301114428740,0.801266
1301114488740,0.794867
1301114548740,0.801554
1301114608740,0.802621
1301114668740,0.801590
1301114728740,0.795350
1301114788740,0.800845
1301114848740,0.796341
1301114908740,0.804390
1301114968740,0.796536
1301115028740,0.800758
1301115088740,0.794995
1301115148740,0.800603
1301115208740,0.806362
1301115268740,0.799711
1301115328740,0.800802
1301115388740,0.798011
1301115448741,0.797859
1301115508741,0.804255
1301115568740,0.796783
1301115628752,0.808897
1301115688752,0.802542
1301115748752,0.798018
1301115808752,0.793719
1301115868752,0.806190
1301115928752,0.801509
1301115988752,0.795981
1301116048752,0.799698
1301116108752,0.803911
1301116168752,0.797359
1301116228752,0.799205
1301116288752,0.795325
1301116348752,0.799803
1301116408752,0.800585
1301116468752,0.803426
1301116528752,0.795944
1301116588752,0.804383
1301116648752,0.800678
1301116708752,0.798993
1301116768752,0.794424
1301116828752,0.797249
1301116888752,0.792291
1301116948752,0.794854
1301117008752,0.798551
1301117068752,0.799949
1301117128752,0.790482
1301117188752,0.797771
1301117248752,0.795526
1301117308752,0.796512
1301117368752,0.800703
1301117428752,0.796463
1301117488752,0.807582
1301117548752,0.797406
1301117608752,0.801741
1301117668752,0.812615
1301117728752,0.809720
1301117788752,0.805612
1301117848752,0.816212
1301117908752,0.816365
1301117968752,0.809231
1301118028752,0.814399
1301118088752,0.823466
1301118148752,0.820614
1301118208752,0.826695
1301118268752,0.823898
1301118328752,0.826048
1301118388752,0.830747
1301118448752,0.842276
1301118508752,0.833405
1301118568752,0.845169
1301118628752,0.843872
1301118688752,0.849463
1301118748752,0.842089
1301118808752,0.855622
1301118868752,0.851342
1301118928752,0.866464
1301118988752,0.861442
1301119048752,0.863581
1301119108752,0.871342
1301119168752,0.865326
1301119228764,0.869164
1301119288764,0.883564
1301119348764,0.874562
1301119408764,0.876312
1301119468764,0.877974
1301119528764,0.883047
1301119588764,0.880102
1301119648764,0.887821
1301119708764,0.892605
1301119768764,0.887713
1301119828764,0.890163
1301119888764,0.888827
1301119948764,0.901353
1301120008764,0.886023
1301120068764,0.884095
1301133088797,0.817638
1301133148797,0.812735
1301133208797,0.822965
1301133268797,0.817169
1301133328797,0.815986
1301133388797,0.819241
1301133448797,0.816345
1301133508797,0.814353
1301133568797,0.821823
1301133628808,0.826534
1301133688808,0.815819
1301133748808,0.815192
1301133808808,0.816600
1301133868808,0.824290
1301133928808,0.828827
1301133988808,0.820956
1301134048808,0.824373
1301134108808,0.815297
1301134168808,0.810442
1301134228808,0.820770
1301134288808,0.820142
1301134348808,0.821970
1301134408808,0.821413
1301134468808,0.814337
1301134528808,0.819297
1301134588808,0.820326
1301134648808,0.813633
1301134708808,0.806948
1301134768808,0.822872
1301134828808,0.813359
1301134888808,0.821294
1301134948808,0.811218
1301135008808,0.813639
1301135068808,0.817024
1301135128808,0.813361
1301135188808,0.822953
1301135248808,0.814773
1301135308808,0.807214
1301135368808,0.811023
1301135428808,0.818769
1301135488808,0.812886
1301135548808,0.811370
1301135608808,0.811168
1301135668808,0.802646
1301135728808,0.814854
1301135788808,0.814130
1301135848808,0.810317
1301135908808,0.809983
1301135968808,0.821422
1301136028808,0.808919
1301136088808,0.813215
1301136148808,0.803911
1301136208808,0.812457
1301136268808,0.812571
1301136328808,0.809671
1301136388808,0.821810
1301136448808,0.813607
1301136508808,0.806780
1301136568808,0.803576
1301136628808,0.803703
1301136688808,0.821163
1301136748808,0.814656
1301136808808,0.811540
1301136868808,0.818352
1301136928808,0.809906
1301136988808,0.813956
1301137048808,0.816109
1301137108808,0.815385
1301137168808,0.809965
1301137228820,0.814755
1301137288820,0.819575
1301137348820,0.812275
1301137408820,0.816549
1301137468820,0.815501
1301137528820,0.807717
1301137588820,0.813769
1301137648820,0.815432
1301137708820,0.807666
1301137768820,0.816092
1301137828820,0.808685
1301137888820,0.806599
1301138428820,0.801427
1301138488820,0.805330
1301138548820,0.803838
1301138608820,0.805884
1301138668820,0.808911
1301138728820,0.797629
1301138788820,0.805363
1301138848820,0.806224
1301138908820,0.806506
1301138968820,0.798996
1301139028820,0.803514
1301139088820,0.804156
1301139148820,0.806250
1301139208820,0.804847
1301139268820,0.802449
1301139328820,0.807972
1301139388820,0.803411
1301139448820,0.802180
1301139508820,0.808065
1301139568820,0.806599
1301139628820,0.800328
1301139688820,0.803887
1301139748820,0.808318
1301139808820,0.812486
1301139868820,0.805525
1301139928820,0.795607
1301139988820,0.796226
1301140048820,0.795791
1301140108820,0.798275
1301140168820,0.804634
1301140228820,0.795327
1301140288820,0.800619
1301140348820,0.795705
1301140408820,0.801047
1301140468820,0.801192
1301140528820,0.803048
1301140588820,0.799293
1301140648820,0.804726
1301140708820,0.798479
1301140768820,0.800733
1301140828832,0.794007
1301140888832,0.803766
1301140948832,0.798096
1301141008832,0.796534
1301141068832,0.792646
1301141128832,0.808440
1301141188832,0.799232
1301141248832,0.796754
1301141308832,0.806234
1301141368832,0.805088
1301141428832,0.803161
1301141488832,0.808747
1301141548832,0.800531
1301141608832,0.804893
1301141668832,0.804909
1301141728832,0.805555
1301141788832,0.803467
1301141848832,0.809717
1301141908832,0.806630
1301141968832,0.813335
1301142028832,0.802939
1301142088832,0.804757
1301142148832,0.811704
1301142208832,0.805946
1301142268832,0.809431
1301142328832,0.811296
1301142388832,0.805974
1301142448832,0.810195
1301142508832,0.814196
1301142568832,0.810710
1301142628832,0.813897
1301142688832,0.800997
1301142748832,0.800650
1301142808832,0.804968
1301142868832,0.803295
1301142928832,0.807940
1301142988832,0.809214
1301143048832,0.806248
1301143108832,0.811212
1301143168832,0.802669
1301143228832,0.812894
1301143288832,0.806230
1301143348832,0.811778
1301143408832,0.813925
1301143468832,0.804377
1301143528832,0.816411
1301143588832,0.801199
1301143648832,0.808020
1301143708832,0.807617
1301143768832,0.807399
1301143828832,0.809024
1301143888832,0.800658
1301143948832,0.816207
1301144008832,0.802879
1301144068832,0.805669
1301144128832,0.800541
1301144188832,0.804780
1301144248832,0.814655
1301144308832,0.807508
1301144368832,0.808870
1301144428844,0.804115
1301144488844,0.805847
1301144548844,0.799177
1301144608844,0.804424
1301144668844,0.804157
1301144728844,0.805752
1301144788844,0.810473
1301144848844,0.808214
1301144908844,0.805776
1301144968844,0.800387
1301145028844,0.805215
1301145088844,0.804783
1301145148844,0.812073
1301145208844,0.803540
1301145268844,0.805838
1301145328844,0.800673
1301145388844,0.806796
1301145448844,0.804891
1301145508844,0.800837
1301145568844,0.807578
1301145628844,0.796491
1301145688844,0.802236
1301145748844,0.801008
1301145808844,0.802168
1301145868844,0.805848
1301145928844,0.798129
1301145988844,0.795689
1301146048844,0.798294
1301146108844,0.801816
1301146168844,0.798213
1301146228844,0.794224
1301146288844,0.793964
1301146348844,0.796049
1301146408844,0.796938
1301146468844,0.794799
1301146528844,0.790337
1301146588844,0.792338
1301146648844,0.792095
1301146708844,0.790675
1301146768844,0.797014
1301146828844,0.784832
1301146888844,0.795687
1301146948844,0.788682
1301147008844,0.799581
1301147068844,0.791007
1301147128844,0.791874
1301147188844,0.786455
1301147248844,0.786594
1301147308844,0.786900
1301147368844,0.783639
1301147428844,0.788714
1301147488844,0.793128
1301147548844,0.793939
1301147608844,0.796736
1301147668844,0.790706
1301147728844,0.796918
1301147788844,0.790420
1301147848844,0.793822
1301147908844,0.795279
1301147968844,0.786878
1301148028856,0.795875
1301148088856,0.794533
1301148148856,0.796423
1301148208856,0.794681
1301148268856,0.800241
1301148328856,0.795090
1301148388856,0.806449
1301148448856,0.803668
1301148508856,0.807672
1301148568856,0.810857
1301148628856,0.813356
1301148688856,0.811436
1301148748856,0.815299
1301148808856,0.805371
1301148868856,0.808531
1301148928856,0.803497
1301148988856,0.798531
1301149048856,0.800203
1301149108856,0.795843
1301149168856,0.798303
1301149228856,0.793129
1301149288856,0.797583
1301149348856,0.797741
1301149408856,0.803870
1301149468856,0.802802
1301149528856,0.796989
1301149588856,0.795908
1301149648856,0.794430
1301149708856,0.801395
1301149768856,0.793417
1301149828856,0.786399
1301149888856,0.792731
1301149948856,0.794837
1301150008856,0.790069
1301150068856,0.793471
1301150128856,0.792193
1301150188856,0.790657
1301150248856,0.792144
1301150308856,0.794397
1301150368856,0.792925
1301150428856,0.785858
1301150488856,0.785134
1301150548856,0.789558
1301150608856,0.794581
1301150668856,0.799271
1301150728856,0.801633
1301150788856,0.799154
1301150848856,0.796936
1301150908856,0.793801
1301150968856,0.789246
1301151028856,0.791486
1301151088856,0.798124
1301151148856,0.794389
1301151208856,0.794658
1301151268856,0.791934
1301151328856,0.795458
1301151388856,0.798736
1301151448856,0.792358
1301151508856,0.797772
1301151568856,0.797063
1301151628868,0.797940
1301151688868,0.796434
1301151748868,0.794243
1301151808868,0.788358
1301151868868,0.796649
1301151928868,0.797400
1301151988868,0.797094
1301152048868,0.800211
1301152108868,0.800429
1301152168868,0.803540
1301152228868,0.806109
1301152288868,0.797984
1301152348868,0.804889
1301152408868,0.798587
1301152468868,0.804534
1301152528868,0.810922
1301152588868,0.812157
1301152648868,0.802174
1301152708868,0.814849
1301152768868,0.812126
1301152828868,0.803606
1301152888868,0.811765
1301152948868,0.813242
1301153008868,0.813986
1301153068868,0.810592
1301153128868,0.803371
1301153188868,0.818369
1301153248868,0.809746
1301153308868,0.818245
1301153368868,0.811147
1301153428868,0.814517
1301153488868,0.808297
1301153548868,0.813393
1301153608868,0.822415
1301153668868,0.818317
1301153728868,0.813761
1301153788868,0.813371
1301153848868,0.811967
1301153908868,0.813340
1301153968868,0.810793
1301154028868,0.815294
1301154088868,0.810583
1301154148868,0.812130
1301154208868,0.806957
1301154268868,0.803933
1301154328868,0.813431
1301154388868,0.814644
1301154448868,0.817228
1301154508868,0.819895
1301154568868,0.815969
1301154628868,0.805750
1301154688868,0.810441
1301154748868,0.803217
1301154808868,0.813255
1301154868868,0.809931
1301154928868,0.806320
1301154988868,0.807843
1301155048868,0.801262
1301155108868,0.803575
1301155168868,0.813078
1301155228879,0.801654
1301155288879,0.803226
1301155348879,0.809686
1301155408879,0.803190
1301155468879,0.810078
1301155528879,0.805327
1301155588879,0.813180
1301155648879,0.812641
1301155708879,0.807376
1301155768879,0.807087
1301155828879,0.807336
1301155888879,0.808790
1301155948879,0.804861
1301156008879,0.809585
1301156068879,0.818390
1301156128879,0.810521
1301156188879,0.819012
1301156248879,0.805272
1301156308879,0.802085
1301156368879,0.806978
1301156428879,0.804813
1301156488879,0.808027
1301156548879,0.806192
1301156608879,0.798818
1301156668879,0.807954
1301156728879,0.799228
1301156788879,0.802632
1301156848879,0.799026
1301156908879,0.802568
1301156968879,0.801917
1301157028879,0.806527
1301157088879,0.793346
1301157148879,0.804815
1301157208879,0.797946
1301157268879,0.798106
1301157328879,0.800846
1301157388879,0.803322
1301157448879,0.808236
1301157508879,0.800724
1301157568879,0.799103
1301157628879,0.794449
1301157688879,0.797583
1301157748879,0.807574
1301157808879,0.799046
1301157868879,0.791236
1301157928879,0.798091
1301157988879,0.797573
1301158048879,0.798447
1301158108879,0.804447
1301158168879,0.798867
1301158228879,0.792698
1301158288879,0.798233
1301158348879,0.804651
1301158408879,0.793247
1301158468879,0.796715
1301158528879,0.788442
1301158588879,0.794368
1301158648879,0.791649
1301158708879,0.792221
1301158768879,0.793561
1301158828891,0.798725
1301158888891,0.793118
1301158948891,0.803527
1301159008891,0.800732
1301159068891,0.793894
1301159128891,0.801673
1301159188891,0.801451
1301159248891,0.792036
1301159308891,0.800427
1301159368891,0.791674
1301159428891,0.794330
1301159488891,0.791186
1301159548891,0.790465
1301159608891,0.789961
1301159668891,0.787742
1301159728891,0.790457
1301159788891,0.797169
1301159848891,0.800032
1301159908891,0.794835
1301159968891,0.796083
1301160028891,0.793625
1301160088891,0.787965
1301160148891,0.793042
1301160208891,0.801204
1301160268891,0.791083
1301160328891,0.790400
1301160388891,0.786458
1301160448891,0.792465
1301160508891,0.797636
1301160568891,0.789634
1301160628891,0.786131
1301160688891,0.798034
1301160748891,0.795486
1301160808891,0.794909
1301160868891,0.787059
1301160928891,0.791816
1301160988891,0.789860
1301161048891,0.791723
1301161108891,0.784780
1301161168891,0.793045
1301161228891,0.792928
1301161288891,0.795317
1301161348891,0.799900
1301161408891,0.790800
1301161468891,0.789910
1301161528891,0.793510
1301161588891,0.795889
1301161648891,0.793484
1301161708891,0.795585
1301161768891,0.793668
1301161828891,0.789720
1301161888891,0.786626
1301161948891,0.789205
1301162008891,0.797190
1301162068891,0.788365
1301162128891,0.789339
1301162188891,0.785759
1301162248891,0.798030
1301162308891,0.788933
1301162368891,0.788995
1301162428903,0.789601
1301162488903,0.784422
1301162548903,0.788006
1301162608903,0.789930
1301162668903,0.786058
1301162728903,0.779892
1301162788903,0.789977
1301162848903,0.791660
1301162908903,0.792618
1301162968903,0.785287
1301163028903,0.785138
1301163088903,0.790394
1301163148903,0.788942
1301163208903,0.790538
1301163268903,0.788572
1301163328903,0.788750
1301163388903,0.798119
1301163448903,0.793931
1301163508903,0.792013
1301163568903,0.792598
1301163628903,0.796009
1301163688903,0.790080
1301163748903,0.787869
1301163808903,0.787948
1301163868903,0.790443
1301163928903,0.793770
1301163988903,0.796907
1301164048903,0.799385
1301164108903,0.792348
1301164168903,0.790692
1301164228903,0.794731
1301164288903,0.793905
1301164348903,0.801506
1301164408903,0.797728
1301164468903,0.792682
1301164528903,0.793858
1301164588903,0.798657
1301164648903,0.793905
1301164708903,0.801235
1301164768903,0.796883
1301164828903,0.793079
1301164888903,0.793757
1301164948903,0.798851
1301165008903,0.792388
1301165068903,0.799785
1301165128903,0.798565
1301165188903,0.802554
1301165248903,0.795223
1301165308903,0.802193
1301165368903,0.790270
1301165428903,0.793375
1301165488903,0.796885
1301165548903,0.796154
1301165608903,0.791790
1301165668903,0.797454
1301165728903,0.800151
1301165788903,0.795704
1301165848903,0.793165
1301165908903,0.792458
1301165968903,0.798346
1301166028914,0.803734
1301166088914,0.799560
1301166148914,0.790745
1301166208914,0.799181
1301166268914,0.803173
1301166328914,0.797553
1301166388914,0.798386
1301166448914,0.793159
1301166508914,0.790193
1301166568914,0.800585
1301166628914,0.795401
1301166688914,0.799297
1301166748914,0.794751
1301166808914,0.797322
1301166868914,0.795858
1301166928914,0.796453
1301166988914,0.791445
1301167048914,0.792966
1301167108914,0.795208
1301167168914,0.796379
1301167228914,0.799450
1301167288914,0.804530
1301167348914,0.798205
1301167408914,0.796498
1301167468914,0.794753
1301167528914,0.794910
1301167588914,0.796456
1301167648914,0.791539
1301167708914,0.790218
1301167768914,0.796556
1301167828914,0.792450
1301167888914,0.796638
1301167948914,0.793431
1301168008914,0.792117
1301168068914,0.795837
1301168128914,0.784579
1301168188914,0.795680
1301168248914,0.787097
1301168308914,0.794573
1301168368914,0.788934
1301168428914,0.787317
1301168488914,0.793596
1301168548914,0.801119
1301168608914,0.786720
1301168668914,0.798487
1301168728914,0.789427
1301168788914,0.782931
1301168848914,0.799612
1301168908914,0.790921
1301168968914,0.796730
1301169028914,0.795244
1301169088914,0.793037
1301169148914,0.791350
1301169208914,0.793929
1301169268914,0.789110
1301169328914,0.793923
1301169388914,0.791675
1301169448914,0.790503
1301169508914,0.787262
1301169568914,0.785971
1301169628926,0.791181
1301169688926,0.792729
1301169748926,0.788174
1301169808926,0.787125
1301169868926,0.785080
1301169928926,0.788871
1301169988926,0.789885
1301170048926,0.788050
1301170108926,0.784313
1301170168926,0.782468
1301170228926,0.792460
1301170288926,0.783576
1301170348926,0.793202
1301170408926,0.782965
1301170468926,0.793790
1301170528926,0.791392
1301170588926,0.779469
1301170648926,0.784309
1301170708926,0.783599
1301170768926,0.796892
1301170828926,0.788928
1301170888926,0.790175
1301170948926,0.790385
1301171008926,0.786422
1301171068926,0.790488
1301171128926,0.786028
1301171188926,0.789389
1301171248926,0.793910
1301171308926,0.783632
1301171368926,0.787327
1301171428926,0.786433
1301171488926,0.795790
1301171548926,0.788514
1301171608926,0.786377
1301171668926,0.791466
1301171728926,0.785730
1301171788926,0.787228
1301171848926,0.786761
1301171908926,0.782294
1301171968926,0.789515
1301172028926,0.784045
1301172088926,0.784792
1301172148926,0.785853
1301172208926,0.783799
1301172268926,0.795888
1301172328926,0.790912
1301172388926,0.793541
1301172448926,0.788736
1301172508926,0.793598
1301172568926,0.789369
1301172628926,0.793619
1301172688926,0.789483
1301172748926,0.787529
1301172808926,0.786239
1301172868926,0.787513
1301172928926,0.794657
1301172988926,0.783011
1301173048926,0.787603
1301173108926,0.786864
1301173168926,0.778420
1301173228938,0.785390
1301173288938,0.782089
1301173348938,0.783782
1301173408938,0.775321
1301173468938,0.784201
1301173528938,0.780442
1301173588938,0.775036